Location: Washington
(38.8950°N, 77.0370°W)
Time: 20:49:41
(UTC-04:00)

IDEFIX/ARIANE 42P - Visible Passes

Search period start: 19 April 2015 00:00
Search period end: 29 April 2015 00:00
Orbit: 785 x 804 km, 98.3° (Epoch: 18 April)

Date Brightness Start Highest point End Pass type
(mag) Time Alt. Az. Time Alt. Az. Time Alt. Az.
19 Apr 3.8 20:48:21 10° S 20:53:16 42° W 20:58:10 10° NNW visible
20 Apr 2.7 20:19:46 10° S 20:24:56 80° WSW 20:30:10 10° NNW visible
21 Apr 5.2 21:33:31 10° SW 21:36:49 16° W 21:39:54 10° NW visible
22 Apr 4.4 21:03:42 10° SSW 21:08:16 30° W 21:12:46 10° NW visible
23 Apr 3.3 20:34:47 10° S 20:39:52 57° W 20:44:58 10° NNW visible
24 Apr 5.5 21:50:18 10° WSW 21:51:57 11° W 21:53:14 10° WNW visible
25 Apr 4.9 21:19:18 10° SW 21:23:18 22° W 21:27:10 10° NW visible
26 Apr 3.9 20:49:58 10° SSW 20:54:49 40° W 20:59:40 10° NNW visible
27 Apr 2.8 20:21:19 10° S 20:26:29 76° WSW 20:31:42 10° NNW visible
28 Apr 5.2 21:35:17 10° SW 21:38:24 15° W 21:41:15 10° NW visible
